Regional Weather Roundup
Issued by NWS Green Bay, WI

Home | Current Version | Previous Version | Text Only | Print | Product List | Glossary On
Versions: 1 2 3 4 5 6 7 8 9 10 11 12 13 14 15 16 17 18 19 20 21 22 23 24 25 26 27 28 29 30 31 32 33 34 35 36 37 38 39 40 41 42 43 44 45 46 47 48 49 50
000
ASUS43 KGRB 191859
RWRGRB

NORTH-CENTRAL AND NORTHEAST WISCONSIN REGIONAL WEATHER ROUNDUP
NATIONAL WEATHER SERVICE GREEN BAY WI
200 PM CDT TUE AUG 19 2014

WIZ005-009-010>012-018-019-192000-
NORTH CENTRAL WISCONSIN

CITY           SKY/WX    TMP DP  RH WIND       PRES   REMARKS
IRONWOOD       NOT AVBL
MANITOWISH WTR NOT AVBL
ARBOR VITAE    NOT AVBL
EAGLE RIVER    NOT AVBL
LAND O LAKES   NOT AVBL
RHINELANDER    PTSUNNY   72  61  68 NW8       29.70F
PHILLIPS       CLOUDY    69  62  79 N6        29.71S
ANTIGO         NOT AVBL
TOMAHAWK       NOT AVBL
MERRILL        NOT AVBL
$$

WIZ013-073-192000-
NORTHEAST WISCONSIN

CITY           SKY/WX    TMP DP  RH WIND       PRES   REMARKS
IRON MOUNTAIN  MOSUNNY   76  62  62 VRB6      29.64F
MARINETTE      PTSUNNY   72  64  78 S3        29.65F
$$

WIZ017-030-035>037-045-192000-
CENTRAL WISCONSIN

CITY           SKY/WX    TMP DP  RH WIND       PRES   REMARKS
MEDFORD        NOT AVBL
WAUSAU         MOSUNNY   73  62  68 W13       29.69S
MOSINEE        PTSUNNY   73  64  73 W12       29.72R
MARSHFIELD     CLOUDY    72  63  73 W10       29.72S
WISC RAPIDS    PTSUNNY   76  62  62 W16G22    29.72S
STEVENS POINT  NOT AVBL
WAUPACA          N/A     76  65  67 W9        29.70R
SHAWANO        PTSUNNY   76  65  69 W5        29.67S
CLINTONVILLE   NOT AVBL
$$

WIZ038-039-048-051-192000-
FOX VALLEY

CITY           SKY/WX    TMP DP  RH WIND       PRES   REMARKS
NWS GREEN BAY  CLOUDY    74  66  76 SW7       29.68S
APPLETON       NOT AVBL
OSHKOSH        CLOUDY    75  66  73 W7        29.69F
FOND DU LAC    CLOUDY    74  65  73 NW10G18   29.70S
$$

WIZ022-050-052-192000-
EAST CENTRAL WISCONSIN

CITY           SKY/WX    TMP DP  RH WIND       PRES   REMARKS
STURGEON BAY   CLOUDY    72  64  78 W8        29.68S
MANITOWOC      NOT AVBL
SHEBOYGAN      MOSUNNY   74  65  73 NW13      29.69S
$$

LMZ563-521-522-541>543-192000-
LAKESHORE

STATION/POSITION TIME  TEMP    WIND        PRES    VSBY  WAVE
                       AIR SEA DIR/SP/G                  HT/PER
                 (UTC) (F)     (DEG/KT/KT) (MB)    (MI)  (FT/S)
SHEBOYGAN LKSHOR 1800   75 65  290/  6/  8 1005.0S
KEWAUNEE LKSHORE 1800   73     300/  6/ 10 1004.2R
TWO RIVERS CG    1800   71 72                N/A       6   2
NORTHPORT PIER   1800   67     110/  4/  5 1004.7S
N MID LAKE BUOY  1800   62 61  210/ 10/ 12 1004.1S         2/ 4
S GREEN BAY BUOY 1800   70     VRB  4      1005.9F
SISTER BAY LKSHO 1800   76     290/  7/  7   N/A
CHAMBERS ISLAND  1800   70     210/  6/  9 1004.7S
MENOMINEE LKSHOR 1800   71     200/  3/  5 1005.2S
$$


USA.gov is the U.S. government's official web portal to all federal, state and local government web resources and services.